www.pogodaiklimat.ru

Погода и климат >> Архив погоды >> Италия >> Катандзаро


ПОГОДА в Катандзаро

  • Прогноз погоды в Катандзаро
  • Монитор погоды в Катандзаро

АРХИВ ПОГОДЫ в Катандзаро

Время (UTC), дата Ветер
(напр.,м/с)
 
Видим.   Явления Облачность Т
(С)
Тd
(С)
f
(%)
Тe
(С)
Тes
(С)
Комфортность P
(гПа)
Po
(гПа)
Тmin
(С)
Tmax
(С)
R
(мм)
R24
(мм)
S
(см)
16 9.06 З 4 н/о н/о +28.6 +9.3 30 +29 +29 жарко 1016.7 979.0
17 9.06 З 4 н/о н/о +27.8 +9.1 31 +28 +28 жарко 1016.6 978.8
18 9.06 СЗ 4 н/о н/о +26.8 +8.2 31 +27 +27 жарко 1016.4 978.5 +29.8
19 9.06 СЗ 4 н/о н/о +26.1 +8.6 33 +26 +26 жарко 1016.7 978.7
20 9.06 З 4 н/о н/о +25.3 +13.1 47 +27 +27 жарко 1017.0 978.9
21 9.06 З 4 н/о н/о +24.5 +12.7 48 +26 +26 жарко 1017.0 978.8
22 9.06 З 4 н/о н/о +24.7 +12.6 47 +27 +27 жарко 1016.9 978.7
23 9.06 СЗ 2 н/о н/о +26.7 +12.3 41 +28 +28 жарко 1016.1 978.2
00 10.06 З 3 н/о н/о +25.6 +11.7 42 +27 +27 жарко 1015.9 977.8
01 10.06 З 4 н/о н/о +24.8 +10.6 41 +26 +26 жарко 1015.5 977.4
02 10.06 СЗ 4 н/о н/о +24.9 +10.7 41 +26 +26 жарко 1014.9 976.8
03 10.06 С 1 н/о н/о +25.0 +11.5 43 +26 +26 жарко 1014.4 976.4
04 10.06 С 1 н/о н/о +25.0 +11.2 42 +26 +26 жарко 1014.2 976.2
05 10.06 З 1 н/о н/о +25.6 +11.3 41 +27 +27 жарко 1014.1 976.2
06 10.06 СВ 1 н/о н/о +27.2 +12.4 40 +29 +29 жарко 1014.1 976.4 +24.1 601
07 10.06 В 1 н/о н/о +27.7 +10.0 33 +28 +28 жарко 1014.1 976.4
08 10.06 СВ 3 н/о н/о +28.7 +10.8 33 +29 +29 жарко 1013.5 976.0
09 10.06 ЮВ 1 н/о н/о +29.8 +10.9 31 +30 +30 жарко 1013.1 975.8
10 10.06 Ю 2 н/о н/о +29.1 +11.2 33 +30 +30 жарко 1013.1 975.6
11 10.06 Ю 3 н/о н/о +30.2 +11.7 32 +31 +31 жарко 1012.4 975.1
12 10.06 З 2 н/о н/о +30.5 +10.5 29 +30 +30 жарко 1012.1 974.8
13 10.06 З 3 н/о н/о +30.9 +10.8 29 +31 +31 жарко 1011.6 974.5
14 10.06 В 3 н/о н/о +27.5 +14.1 44 +30 +30 жарко 1012.5 974.8
15 10.06 СВ 2 н/о н/о +23.0 +15.5 63 +27 +27 душно 1012.7 974.5
16 10.06 СЗ 2 н/о н/о +25.4 +15.9 56 +29 +29 душно 1011.5 973.7
17 10.06 З 2 н/о н/о +27.9 +13.7 42 +30 +30 жарко 1010.6 973.1
18 10.06 З 1 н/о н/о +26.5 +12.2 41 +28 +28 жарко 1011.0 973.3 +31.4 0.6
19 10.06 З 3 н/о н/о +24.6 +14.6 54 +27 +27 жарко 1011.2 973.2
20 10.06 СЗ 4 н/о н/о +25.5 +11.3 41 +27 +27 жарко 1011.3 973.5
21 10.06 СЗ 4 н/о н/о +25.4 +11.2 41 +27 +27 жарко 1011.6 973.7
22 10.06 З 4 н/о н/о +24.4 +11.0 43 +26 +26 жарко 1011.6 973.6
23 10.06 СЗ 4 н/о н/о +23.7 +11.4 46 +25 +25 комфорт 1011.2 973.1
00 11.06 С 1 н/о н/о +24.6 +12.2 46 +26 +26 жарко 1010.7 972.8
01 11.06 СЗ 3 н/о н/о +24.3 +11.2 44 +26 +26 жарко 1010.6 972.6
02 11.06 С 1 н/о н/о +24.9 +11.1 42 +26 +26 жарко 1010.3 972.4
03 11.06 штиль 0 н/о н/о +24.8 +11.0 42 +26 +26 жарко 1010.1 972.2
04 11.06 СЗ 3 н/о н/о +24.2 +10.1 41 +25 +25 комфорт 1010.3 972.4
05 11.06 С 1 н/о н/о +23.7 +10.7 44 +25 +25 комфорт 1010.5 972.5
06 11.06 ЮВ 1 н/о н/о +24.8 +11.3 43 +26 +26 жарко 1010.5 972.6 +23.4 502
07 11.06 Ю 1 н/о н/о +25.0 +12.8 47 +27 +27 жарко 1010.9 973.1
08 11.06 Ю 2 н/о н/о +26.4 +13.4 45 +28 +28 жарко 1011.0 973.2
09 11.06 З 3 н/о н/о +27.7 +12.8 40 +29 +29 жарко 1010.9 973.4
10 11.06 З 4 н/о н/о +28.7 +12.2 36 +30 +30 жарко 1010.6 973.2
11 11.06 З 5 н/о н/о +29.2 +14.6 41 +31 +31 жарко 1010.2 972.8
12 11.06 Ю 1 н/о н/о +27.6 +14.9 46 +30 +30 жарко 1010.9 973.3
13 11.06 Ю 4 н/о н/о +28.1 +13.6 41 +30 +30 жарко 1010.8 973.3
14 11.06 З 4 н/о н/о +29.6 +11.6 33 +30 +30 жарко 1010.4 973.1
15 11.06 З 4 н/о н/о +29.6 +11.6 33 +30 +30 жарко 1010.1 972.8
16 11.06 З 2 н/о н/о +29.0 +11.6 34 +30 +30 жарко 1010.2 972.8
17 11.06 З 2 н/о н/о +28.6 +11.6 35 +29 +29 жарко 1010.2 972.8
18 11.06 З 2 н/о н/о +26.5 +11.8 40 +28 +28 жарко 1010.5 972.8 +30.2
19 11.06 штиль 0 н/о н/о +27.6 +7.5 28 +27 +27 жарко 1010.7 973.1
20 11.06 ЮВ 1 н/о н/о +26.9 +7.9 30 +27 +27 жарко 1010.9 973.3
21 11.06 штиль 0 н/о н/о +26.8 +8.2 31 +27 +27 жарко 1011.1 973.4
22 11.06 штиль 0 н/о н/о +26.0 +9.8 36 +27 +27 жарко 1011.5 973.7
23 11.06 ЮЗ 2 н/о н/о +26.3 +11.6 40 +28 +28 жарко 1011.1 973.4
00 12.06 СВ 1 н/о н/о +25.9 +6.0 28 +25 +25 комфорт 1011.2 973.4
01 12.06 С 1 н/о н/о +25.7 +5.3 27 +25 +25 комфорт 1011.1 973.3
02 12.06 С 1 н/о н/о +26.3 +6.3 28 +26 +26 жарко 1011.0 973.2
03 12.06 С 2 н/о н/о +26.4 +7.4 30 +26 +26 жарко 1010.8 973.1
04 12.06 С 2 н/о н/о +27.1 +7.5 29 +27 +27 жарко 1010.9 973.2
05 12.06 С 3 н/о н/о +26.9 +6.8 28 +26 +26 жарко 1011.1 973.4
06 12.06 штиль 0 н/о н/о +26.6 +9.4 34 +27 +27 жарко 1011.3 973.6 +25.2 101
07 12.06 ЮЗ 2 н/о н/о +26.0 +9.8 36 +27 +27 жарко 1011.8 974.0
08 12.06 В 1 н/о н/о +27.3 +12.1 39 +29 +29 жарко 1011.9 974.3
09 12.06 ЮВ 2 н/о н/о +28.9 +13.1 38 +30 +30 жарко 1012.1 974.6
10 12.06 Ю 1 н/о н/о +30.6 +12.9 34 +32 +32 жарко 1011.6 974.4
11 12.06 ЮВ 3 н/о н/о +29.9 +15.6 42 +33 +33 душно 1011.7 974.4
12 12.06 ЮВ 2 н/о н/о +29.9 +15.9 43 +33 +33 душно 1011.8 974.4
13 12.06 ЮВ 3 н/о н/о +29.8 +14.7 40 +32 +32 душно 1011.5 974.2
14 12.06 В 3 н/о н/о +28.0 +14.9 45 +31 +31 душно 1011.9 974.3
15 12.06 В 2 н/о н/о +27.7 +15.6 48 +31 +31 душно 1012.0 974.3
16 12.06 В 3 н/о н/о +26.6 +15.3 50 +29 +29 жарко 1011.9 974.1
17 12.06 СВ 3 н/о н/о +24.5 +15.3 57 +27 +27 жарко 1012.2 974.2
18 12.06 СВ 3 н/о н/о +23.2 +14.4 58 +27 +27 душно 1012.3 974.1 +31.9
19 12.06 С 2 н/о н/о +21.5 +15.0 66 +25 +25 комфорт 1012.8 974.4
20 12.06 С 2 н/о н/о +23.0 +15.5 63 +27 +27 душно 1013.3 975.0
21 12.06 С 1 н/о н/о +24.2 +15.1 57 +27 +27 жарко 1013.2 975.1
22 12.06 ЮВ 1 н/о н/о +23.9 +14.2 55 +26 +26 жарко 1013.5 975.3
23 12.06 З 3 н/о н/о +25.1 +11.6 43 +27 +27 жарко 1013.0 975.1
00 13.06 З 6 н/о н/о +21.6 +10.4 49 +23 +23 комфорт 1013.2 974.8
01 13.06 З 8 н/о н/о +20.6 +14.4 68 +23 +23 комфорт 1013.1 974.6
02 13.06 З 7 н/о н/о +20.3 +13.4 65 +22 +22 комфорт 1013.1 974.5
03 13.06 З 6 н/о н/о +19.9 +15.0 73 +22 +22 комфорт 1013.1 974.5
04 13.06 З 8 н/о н/о +19.5 +14.2 71 +21 +21 комфорт 1013.5 974.8
05 13.06 З 8 н/о н/о +19.4 +13.5 69 +20 +20 1013.8 975.1
06 13.06 З 4 н/о н/о +20.5 +14.5 68 +23 +23 комфорт 1014.4 975.8 +19.3 1
07 13.06 З 4 н/о н/о +21.4 +16.1 72 +25 +25 комфорт 1014.5 976.0
08 13.06 З 5 н/о н/о +21.9 +17.2 75 +26 +26 душно 1014.6 976.2
09 13.06 З 6 н/о н/о +22.6 +17.0 71 +27 +27 душно 1014.7 976.4
10 13.06 З 4 н/о н/о +24.1 +17.3 66 +28 +28 душно 1014.4 976.3
11 13.06 З 6 н/о н/о +25.4 +15.9 56 +29 +29 душно 1014.3 976.3
12 13.06 З 6 н/о н/о +26.5 +16.4 54 +30 +30 душно 1013.9 976.1
13 13.06 З 4 н/о н/о +27.4 +16.6 52 +31 +31 душно 1014.1 976.4
14 13.06 З 2 н/о н/о +27.6 +16.5 51 +31 +31 душно 1014.1 976.4
15 13.06 З 3 н/о н/о +27.4 +16.3 51 +31 +31 душно 1014.1 976.4
16 13.06 З 3 н/о н/о +27.4 +16.3 51 +31 +31 душно 1014.1 976.4
17 13.06 З 3 н/о н/о +26.4 +16.9 56 +30 +30 душно 1014.4 976.5
18 13.06 З 2 н/о н/о +25.9 +16.9 58 +30 +30 душно 1014.8 976.8 +28.0
19 13.06 З 3 н/о н/о +24.4 +16.6 62 +28 +28 душно 1015.2 977.1
20 13.06 С 1 н/о н/о +24.8 +17.2 63 +29 +29 душно 1015.9 977.8
21 13.06 штиль 0 н/о н/о +24.2 +15.3 58 +27 +27 жарко 1016.3 978.1
22 13.06 штиль 0 н/о н/о +24.4 +15.5 58 +27 +27 жарко 1016.7 978.5
23 13.06 штиль 0 н/о н/о +23.9 +15.6 60 +27 +27 жарко 1016.6 978.3
00 14.06 СЗ 2 н/о н/о +24.0 +13.5 52 +26 +26 жарко 1016.3 978.1
01 14.06 З 2 н/о н/о +23.7 +12.9 51 +26 +26 жарко 1016.0 977.7
02 14.06 З 2 н/о н/о +23.2 +12.8 52 +26 +26 жарко 1015.9 977.6
03 14.06 СЗ 3 н/о н/о +23.7 +12.6 50 +26 +26 жарко 1015.9 977.6
04 14.06 З 3 н/о н/о +23.1 +11.4 48 +25 +25 комфорт 1016.2 977.9
05 14.06 З 1 н/о н/о +24.0 +12.0 47 +26 +26 жарко 1016.3 978.1
06 14.06 Ю 1 н/о н/о +24.7 +12.6 47 +27 +27 жарко 1016.9 978.7 +23.1 1
07 14.06 Ю 2 н/о н/о +25.5 +13.0 46 +27 +27 жарко 1017.1 979.0
08 14.06 Ю 2 н/о н/о +26.3 +14.0 47 +29 +29 жарко 1017.2 979.2
09 14.06 ЮВ 3 н/о н/о +27.5 +14.8 46 +30 +30 жарко 1017.0 979.2
10 14.06 Ю 3 н/о н/о +27.5 +14.4 45 +30 +30 жарко 1016.9 979.0
11 14.06 Ю 3 н/о н/о +26.9 +15.8 51 +30 +30 душно 1016.7 978.8
12 14.06 Ю 2 н/о н/о +27.3 +15.6 49 +30 +30 душно 1016.5 978.7
13 14.06 Ю 3 н/о н/о +27.2 +16.7 53 +31 +31 душно 1016.2 978.4
14 14.06 ЮВ 2 н/о н/о +26.9 +16.4 53 +30 +30 душно 1016.4 978.5
15 14.06 Ю 2 н/о н/о +26.2 +16.1 54 +30 +30 душно 1016.3 978.4
16 14.06 Ю 2 н/о н/о +26.2 +16.4 55 +30 +30 душно 1015.8 977.9
17 14.06 Ю 1 н/о н/о +26.8 +16.4 53 +30 +30 душно 1015.5 977.7
18 14.06 штиль 0 н/о н/о +26.8 +16.4 53 +30 +30 душно 1015.8 977.9 +28.4
19 14.06 СЗ 1 н/о н/о +26.1 +15.7 53 +29 +29 жарко 1015.8 977.9
20 14.06 штиль 0 н/о н/о +25.1 +15.9 57 +28 +28 жарко 1016.7 978.6
21 14.06 З 4 н/о н/о +25.1 +12.3 45 +27 +27 жарко 1016.6 978.5
22 14.06 З 3 н/о н/о +24.5 +9.6 39 +25 +25 комфорт 1016.5 978.3
23 14.06 З 4 н/о н/о +24.0 +11.6 46 +26 +26 жарко 1016.1 977.8
00 15.06 СЗ 6 н/о н/о +22.7 +14.5 60 +26 +26 жарко 1015.5 977.2
01 15.06 З 9 н/о н/о +22.5 +13.7 57 +26 +26 жарко 1015.4 977.0
02 15.06 З 5 н/о н/о +22.4 +13.9 59 +26 +26 жарко 1014.5 976.1
03 15.06 СЗ 2 н/о н/о +24.5 +9.2 38 +25 +25 комфорт 1014.3 976.2
04 15.06 СЗ 3 н/о н/о +25.2 +5.9 29 +25 +25 комфорт 1014.2 976.2
05 15.06 СЗ 2 н/о н/о +25.9 +6.5 29 +26 +26 жарко 1014.4 976.5
06 15.06 З 4 н/о н/о +25.2 +9.0 36 +26 +26 жарко 1014.6 976.6 +22.4 1
07 15.06 З 5 н/о н/о +24.6 +14.6 54 +27 +27 жарко 1014.9 976.8
08 15.06 З 5 н/о н/о +25.2 +17.1 61 +29 +29 душно 1014.8 976.8
09 15.06 З 5 н/о н/о +25.1 +17.5 63 +29 +29 душно 1014.6 976.6
10 15.06 З 3 н/о н/о +27.0 +18.0 58 +32 +32 очень
душно
1014.0 976.3
11 15.06 З 7 н/о н/о +27.3 +16.8 53 +31 +31 душно 1014.1 976.4
12 15.06 З 5 н/о н/о +27.7 +18.1 56 +32 +32 очень
душно
1013.6 975.9
13 15.06 З 4 н/о н/о +29.1 +16.6 47 +33 +33 очень
душно
1013.1 975.6
14 15.06 З 9 н/о н/о +27.4 +15.0 47 +30 +30 жарко 1013.4 975.7
15 15.06 З 5 н/о н/о +26.9 +15.5 50 +30 +30 душно 1013.4 975.6
16 15.06 З 4 н/о н/о +26.9 +16.7 54 +31 +31 душно 1012.9 975.1
17 15.06 З 5 н/о н/о +25.1 +18.2 66 +30 +30 душно 1013.3 975.3
18 15.06 СЗ 6 н/о н/о +24.6 +14.0 52 +27 +27 жарко 1012.9 974.9 +29.5
19 15.06 З 4 н/о н/о +25.7 +11.8 42 +27 +27 жарко 1012.5 974.6
20 15.06 З 7 н/о н/о +24.3 +12.6 48 +26 +26 жарко 1013.2 975.1
21 15.06 З 6 н/о н/о +24.0 +11.0 44 +25 +25 комфорт 1013.3 975.2
22 15.06 З 9 н/о н/о +22.3 +15.8 67 +26 +26 жарко 1013.6 975.2
23 15.06 З 6 н/о н/о +22.4 +15.7 66 +26 +26 жарко 1013.3 975.0
00 16.06 СЗ 7 н/о н/о +21.7 +16.6 73 +26 +26 душно 1013.3 974.9
01 16.06 СЗ 8 н/о н/о +21.4 +16.7 75 +25 +25 комфорт 1013.3 974.9
02 16.06 СЗ 11 н/о н/о +21.2 +15.7 71 +24 +24 комфорт 1012.9 974.4
03 16.06 СЗ 6 н/о н/о +20.8 +16.1 74 +24 +24 комфорт 1013.1 974.6
04 16.06 З 6 н/о н/о +20.7 +16.2 75 +24 +24 комфорт 1013.0 974.5
05 16.06 З 7 н/о н/о +20.8 +17.2 80 +24 +24 комфорт 1013.4 974.9
06 16.06 З 9 н/о н/о +21.3 +17.2 77 +25 +25 комфорт 1013.6 975.1 +20.6 1
07 16.06 З 5 н/о н/о +22.6 +17.2 72 +27 +27 душно 1013.7 975.4
08 16.06 З 4 н/о н/о +22.6 +17.2 72 +27 +27 душно 1014.0 975.7
09 16.06 З 8 н/о н/о +23.6 +17.7 70 +28 +28 душно 1014.2 976.0
10 16.06 З 4 н/о н/о +24.2 +17.6 67 +28 +28 душно 1014.2 976.1
11 16.06 З 5 н/о н/о +24.6 +17.5 65 +29 +29 душно 1014.1 976.0
12 16.06 З 6 н/о н/о +24.6 +16.5 61 +28 +28 душно 1013.7 975.7
13 16.06 З 5 н/о н/о +24.8 +16.7 61 +28 +28 жарко 1013.5 975.5
14 16.06 З 8 н/о н/о +24.9 +16.3 59 +28 +28 жарко 1012.9 974.9
15 16.06 З 6 н/о н/о +24.5 +16.4 61 +28 +28 душно 1012.6 974.6
16 16.06 СЗ 8 н/о н/о +23.5 +16.2 64 +27 +27 душно 1012.1 974.0

 

Местоположение метеостанции Катандзаро (Италия): широта 38.90 долгота 16.60 высота над уровнем моря 343 м.

В архиве по умолчанию представлена погода в Катандзаро за последнюю неделю. Архивные данные за месяц целиком и за предыдущие месяцы, начиная с января 2011 года, Вы можете получить, выбрав интересующий диапазон дат из раскрывающегося списка и нажав кнопку "Ввод!".


*Определитесь, кто Вы:
робот инопланетянин человек

Внимание! Время в таблицах - всемирное. Для получения местного времени необходимо прибавить поправку, которая равна 1 ч.

Смотрите также архив погоды в соседних городах и на ближайших метеорологических станциях:

Погода в Серральта-ди-сан-Вито (Италия) (22 км)
Погода в Ламеция-Терме (Италия) (30 км)
Погода на Монте Скеро (Италия) (51 км)
Погода в Пунто Алисе (Италия) (74 км)
Погода в Бонифати (Италия) (98 км)
Погода на Капо Стартивенто (Италия) (118 км)
Погода в Мессине (Италия) (120 км)
Погода в Латронико (Италия) (140 км)
Погода на Острове Салина (Италия) (154 км)
Погода на Капо Палинуро (Италия) (168 км)

Пояснения к столбцам:

Ветер - указаны скорость ветра в м/с - средняя за 10 мин, порывы в срок и между сроками (в фигурных скобках) и направление, откуда дует ветер: С - северный, СВ - северо-восточный, В - восточный, ЮВ - юго-восточный, Ю - южный, ЮЗ - юго-западный, З - западный, СЗ - северо-западный.
Видимость - горизонтальная дальность видимости в метрах или километрах. При видимости от 1 до 10 км при отсутствии осадков обычно наблюдается дымка, при ухудшении видимости до 1 км и менее - туман. В сухую погоду видимость может ухудшаться дымом, пылью или мглою.
Явления - указаны атмосферные явления, наблюдавшиеся в срок или в последний час перед сроком; фигурными скобками обозначены явления, наблюдавшиеся между сроками (за 1-3 часа до срока); квадратными скобками обозначены град или гололедные отложения с указанием их диаметра в мм.
Облачность - указаны через наклонную черту общая и нижняя облачность в баллах и высота нижней границы облаков в метрах; квадратными скобками обозначены формы облаков: Ci - перистые, Cs - перисто-слоистые, Cc - перисто-кучевые, Ac - высококучевые, As - высокослоистые, Sc - слоисто-кучевые, Ns - слоисто-дождевые, Cu - кучевые, Cb - кучево-дождевые. Подробнее классификацию облаков см. в Атласе облаков (PDF).
T - Температура воздуха - температура, измеренная на высоте 2 м над землей.
Td - Температура точки росы - температура, при понижении до которой содержащийся в воздухе водяной пар достигнет насыщения.
f - Относительная влажность воздуха - влажноcть воздуха, измеренная на высоте 2 м над землей.
Te - Эффективная температура - температура, которую ощущает одетый по сезону человек в тени. Характеристика душности погоды. При расчете учитывается влияние влажности воздуха и скорости ветра на теплоощущения человека.
Tes - Эффективная температура на солнце - температура, которую ощущает человек, с поправкой на солнечный нагрев. Характеристика знойности погоды. Зависит от высоты солнца над горизонтом, облачности и скорости ветра. Ночью, в пасмурную погоду, а также при ветре 12 м/с и более поправка равна нулю.
P - Атмосферное давление - приведенное к уровню моря атмосферное давление.
Po - Атмосферное давление - измеренное на уровне метеостанции атмосферное давление.
Tmin - Минимальная температура - минимум температуры воздуха на высоте 2 м над землей.
Tmax - Максимальная температура - максимум температуры воздуха на высоте 2 м над землей.
R - Количество осадков - Количество выпавших осадков за период времени, мм. При наведении курсора мыши на число - период времени, за который выпало указанное количество осадков.
R24 - Количество осадков - Количество выпавших осадков за 24 часа, мм.
S - Снежный покров - Высота снежного покрова, см. При наведении курсора мыши на число - состояние снежного покрова и степень покрытия местности в баллах.